Hourly Weather Holyky

Today, 12 April, Monday

Time Temperature Precipitation Wind Pressure Humidity
00:00 +5°C° 0 mm 3 mps 747 mmHg 62%
01:00 +5°C° 0 mm 3 mps 747 mmHg 63%
02:00 +4°C° 0 mm 3 mps 747 mmHg 63%
03:00 +4°C° 0 mm 3 mps 747 mmHg 64%
04:00 +4°C° 0 mm 3 mps 747 mmHg 65%
05:00 +3°C° 0 mm 3 mps 746 mmHg 66%
06:00 +5°C° 0 mm 3 mps 746 mmHg 62%
07:00 +7°C° 0 mm 3 mps 746 mmHg 58%
08:00 +9°C° 0 mm 3 mps 746 mmHg 54%
09:00 +11°C° 0 mm 3 mps 746 mmHg 48%
10:00 +12°C° 0 mm 3 mps 746 mmHg 43%
11:00 +14°C° 0 mm 3 mps 745 mmHg 37%
12:00 +16°C° 0 mm 3 mps 745 mmHg 36%
13:00 +17°C° 0 mm 3 mps 745 mmHg 34%
14:00 +17°C° 0 mm 3 mps 744 mmHg 32%
15:00 +17°C° 0 mm 2 mps 744 mmHg 33%
16:00 +17°C° 0 mm 2 mps 744 mmHg 34%
17:00 +17°C° 0 mm 2 mps 744 mmHg 35%
18:00 +15°C° 0 mm 2 mps 744 mmHg 41%
19:00 +14°C° 0 mm 2 mps 744 mmHg 46%
20:00 +12°C° 0 mm 2 mps 744 mmHg 52%
21:00 +10°C° 0 mm 2 mps 744 mmHg 55%
22:00 +9°C° 0 mm 2 mps 744 mmHg 58%
23:00 +9°C° 0 mm 3 mps 744 mmHg 62%

Tomorrow, 13 April, Tuesday

Time Temperature Precipitation Wind Pressure Humidity
00:00 +8°C° 0 mm 2 mps 744 mmHg 63%
01:00 +8°C° 0 mm 2 mps 743 mmHg 64%
02:00 +8°C° 0 mm 2 mps 743 mmHg 65%
03:00 +7°C° 0 mm 2 mps 743 mmHg 65%
04:00 +7°C° 0 mm 2 mps 743 mmHg 66%
05:00 +8°C° 0 mm 1 mps 743 mmHg 66%
06:00 +9°C° 0 mm 1 mps 743 mmHg 63%
07:00 +10°C° 0 mm 1 mps 743 mmHg 60%
08:00 +12°C° 0 mm 1 mps 743 mmHg 57%
09:00 +13°C° 0 mm 1 mps 743 mmHg 52%
10:00 +15°C° 0 mm 1 mps 743 mmHg 48%
11:00 +16°C° 0 mm 1 mps 743 mmHg 44%
12:00 +18°C° 0 mm 1 mps 742 mmHg 42%
13:00 +18°C° 0 mm 1 mps 742 mmHg 40%
14:00 +19°C° 0 mm 1 mps 742 mmHg 38%
15:00 +17°C° 0 mm 2 mps 741 mmHg 43%
16:00 +16°C° 0 mm 2 mps 741 mmHg 47%
17:00 +16°C° 0 mm 3 mps 741 mmHg 52%
18:00 +13°C° 0 mm 3 mps 741 mmHg 60%
19:00 +12°C° 0 mm 3 mps 741 mmHg 67%
20:00 +11°C° 0 mm 3 mps 741 mmHg 75%
21:00 +10°C° 0.1 mm 2 mps 741 mmHg 78%
22:00 +10°C° 0.1 mm 2 mps 741 mmHg 80%
23:00 +11°C° 0.1 mm 1 mps 740 mmHg 83%

Day after tomorrow, 14 April, Wednesday

Time Temperature Precipitation Wind Pressure Humidity
00:00 +11°C° 0.2 mm 1 mps 740 mmHg 84%
01:00 +10°C° 0.2 mm 1 mps 740 mmHg 86%
02:00 +9°C° 0.2 mm 0 mps 740 mmHg 88%
03:00 +10°C° 0.2 mm 1 mps 739 mmHg 89%
04:00 +10°C° 0.2 mm 1 mps 739 mmHg 90%
05:00 +10°C° 0.2 mm 1 mps 739 mmHg 91%
06:00 +10°C° 0.5 mm 1 mps 739 mmHg 92%
07:00 +10°C° 0.5 mm 1 mps 739 mmHg 92%
08:00 +10°C° 0.5 mm 1 mps 739 mmHg 93%
09:00 +10°C° 0.6 mm 1 mps 739 mmHg 92%
10:00 +10°C° 0.6 mm 1 mps 739 mmHg 92%
11:00 +10°C° 0.6 mm 1 mps 739 mmHg 91%
12:00 +9°C° 0.2 mm 2 mps 739 mmHg 90%
13:00 +9°C° 0.2 mm 2 mps 739 mmHg 88%
14:00 +9°C° 0.2 mm 2 mps 739 mmHg 87%
15:00 +9°C° 0.3 mm 2 mps 739 mmHg 89%
16:00 +8°C° 0.3 mm 3 mps 739 mmHg 90%
17:00 +8°C° 0.3 mm 3 mps 739 mmHg 92%
18:00 +7°C° 0.5 mm 3 mps 739 mmHg 93%
19:00 +7°C° 0.5 mm 3 mps 740 mmHg 94%
20:00 +5°C° 0.5 mm 3 mps 740 mmHg 94%
21:00 +5°C° 0.2 mm 3 mps 740 mmHg 94%
22:00 +5°C° 0.2 mm 3 mps 740 mmHg 94%
23:00 +4°C° 0.2 mm 3 mps 740 mmHg 94%

15 April, Thursday

Time Temperature Precipitation Wind Pressure Humidity
00:00 +4°C° 0.4 mm 3 mps 740 mmHg 94%
01:00 +4°C° 0.4 mm 3 mps 740 mmHg 94%
02:00 +4°C° 0.4 mm 3 mps 740 mmHg 95%
03:00 +3°C° 0.3 mm 3 mps 740 mmHg 95%
04:00 +3°C° 0.3 mm 3 mps 740 mmHg 95%
05:00 +3°C° 0.3 mm 3 mps 740 mmHg 95%
06:00 +3°C° 0.2 mm 3 mps 740 mmHg 95%
07:00 +3°C° 0.2 mm 3 mps 740 mmHg 95%
08:00 +3°C° 0.2 mm 3 mps 740 mmHg 94%
09:00 +4°C° 0.1 mm 3 mps 740 mmHg 93%
10:00 +4°C° 0.1 mm 3 mps 740 mmHg 92%
11:00 +5°C° 0.1 mm 3 mps 740 mmHg 91%
12:00 +5°C° 0 mm 3 mps 740 mmHg 90%
13:00 +5°C° 0 mm 4 mps 740 mmHg 89%
14:00 +6°C° 0 mm 4 mps 740 mmHg 88%
15:00 +5°C° 0.2 mm 4 mps 740 mmHg 89%
16:00 +5°C° 0.2 mm 4 mps 740 mmHg 91%
17:00 +5°C° 0.2 mm 4 mps 740 mmHg 92%
18:00 +5°C° 0.6 mm 4 mps 739 mmHg 93%
19:00 +4°C° 0.6 mm 4 mps 739 mmHg 94%
20:00 +3°C° 0.6 mm 5 mps 739 mmHg 95%
21:00 +3°C° 0.7 mm 5 mps 739 mmHg 95%
22:00 +3°C° 0.7 mm 5 mps 739 mmHg 96%
23:00 +3°C° 0.7 mm 5 mps 739 mmHg 96%

16 April, Friday

Time Temperature Precipitation Wind Pressure Humidity
00:00 +4°C° 1.3 mm 4 mps 739 mmHg 96%
01:00 +4°C° 1.3 mm 4 mps 738 mmHg 96%
02:00 +4°C° 1.3 mm 4 mps 738 mmHg 96%
03:00 +3°C° 0.6 mm 4 mps 738 mmHg 96%
04:00 +3°C° 0.6 mm 4 mps 738 mmHg 97%
05:00 +3°C° 0.6 mm 4 mps 738 mmHg 97%
06:00 +3°C° 0.1 mm 4 mps 738 mmHg 96%
07:00 +3°C° 0.1 mm 4 mps 738 mmHg 96%
08:00 +3°C° 0.1 mm 4 mps 738 mmHg 96%
09:00 +3°C° 0.2 mm 4 mps 738 mmHg 96%
10:00 +4°C° 0.2 mm 4 mps 738 mmHg 95%
11:00 +4°C° 0.2 mm 4 mps 738 mmHg 95%
12:00 +4°C° 0.7 mm 4 mps 738 mmHg 95%
13:00 +3°C° 0.7 mm 5 mps 738 mmHg 94%
14:00 +3°C° 0.7 mm 5 mps 738 mmHg 94%
15:00 +3°C° 1.7 mm 5 mps 738 mmHg 95%
16:00 +2°C° 1.7 mm 5 mps 738 mmHg 95%
17:00 +3°C° 1.7 mm 4 mps 738 mmHg 96%
18:00 +3°C° 0.1 mm 4 mps 738 mmHg 96%
19:00 +3°C° 0.1 mm 3 mps 738 mmHg 97%
20:00 +4°C° 0.1 mm 2 mps 738 mmHg 97%
21:00 +4°C° 0 mm 2 mps 738 mmHg 97%
22:00 +5°C° 0 mm 2 mps 739 mmHg 97%
23:00 +6°C° 0 mm 1 mps 739 mmHg 98%

17 April, Saturday

Time Temperature Precipitation Wind Pressure Humidity
00:00 +6°C° 0 mm 1 mps 739 mmHg 97%
01:00 +6°C° 0 mm 1 mps 739 mmHg 97%
02:00 +6°C° 0 mm 1 mps 740 mmHg 97%
03:00 +6°C° 0 mm 1 mps 740 mmHg 97%
04:00 +7°C° 0 mm 1 mps 740 mmHg 97%
05:00 +7°C° 0 mm 1 mps 741 mmHg 96%
06:00 +7°C° 0 mm 1 mps 741 mmHg 95%
07:00 +7°C° 0 mm 2 mps 742 mmHg 94%
08:00 +7°C° 0 mm 2 mps 742 mmHg 92%
09:00 +8°C° 0 mm 2 mps 742 mmHg 85%
10:00 +9°C° 0 mm 3 mps 743 mmHg 78%
11:00 +10°C° 0 mm 3 mps 743 mmHg 71%
12:00 +11°C° 0.1 mm 4 mps 743 mmHg 68%
13:00 +11°C° 0.1 mm 4 mps 744 mmHg 66%
14:00 +12°C° 0.1 mm 4 mps 744 mmHg 64%
15:00 +11°C° 0.1 mm 4 mps 744 mmHg 66%
16:00 +11°C° 0.1 mm 4 mps 744 mmHg 69%
17:00 +10°C° 0.1 mm 3 mps 745 mmHg 72%
18:00 +9°C° 0 mm 3 mps 745 mmHg 75%
19:00 +8°C° 0 mm 3 mps 745 mmHg 79%
20:00 +7°C° 0 mm 2 mps 746 mmHg 82%
21:00 +7°C° 0 mm 2 mps 746 mmHg 84%
22:00 +6°C° 0 mm 2 mps 746 mmHg 85%
23:00 +6°C° 0 mm 2 mps 747 mmHg 87%
Show more